GW5964 Weather Reports


Display with metric or nautical units.
time (UTC)temp
F
wind
direction
speed
MPH
gust
MPH
rain 1hr
in
rain 24hr
in
rain mn
in
humidity
%
barometer
mb
20260508101841 31 100 0.0 0.0 0.00 0.00 0.00 98 1017.3
20260508101339 31 100 0.0 0.0 0.00 0.00 0.00 98 1017.1
20260508100836 31 87 0.0 0.0 0.00 0.00 0.00 98 1016.9
20260508100335 30 87 0.0 0.0 0.00 0.00 0.00 98 1017.0
20260508095830 30 87 0.0 0.0 0.00 0.00 0.00 98 1016.9
20260508095328 31 87 0.0 0.0 0.00 0.00 0.00 98 1016.8
20260508094825 31 87 0.0 0.0 0.00 0.00 0.00 98 1016.7
20260508094322 31 87 0.0 0.0 0.00 0.00 0.00 98 1016.7
20260508093818 31 87 0.0 0.0 0.00 0.00 0.00 98 1016.7
20260508093316 31 87 0.0 0.0 0.00 0.00 0.00 98 1016.6
20260508092813 31 87 0.0 0.0 0.00 0.00 0.00 98 1016.7
20260508092313 31 87 0.0 0.0 0.00 0.00 0.00 98 1016.7
20260508091809 31 87 0.0 0.0 0.00 0.00 0.00 98 1016.6
20260508091305 31 87 0.0 0.0 0.00 0.00 0.00 98 1016.5
20260508090803 31 88 0.0 0.0 0.00 0.00 0.00 98 1016.4
20260508090301 31 87 0.0 0.0 0.00 0.00 0.00 97 1016.4
20260508085757 31 88 0.0 0.0 0.00 0.00 0.00 97 1016.4
20260508085254 32 87 0.0 0.0 0.00 0.00 0.00 97 1016.5
20260508084749 32 87 0.0 0.0 0.00 0.00 0.00 97 1016.6
20260508084247 31 88 0.0 0.0 0.00 0.00 0.00 97 1016.4
20260508083745 31 87 0.0 0.0 0.00 0.00 0.00 97 1016.4
20260508083242 32 87 0.0 0.0 0.00 0.00 0.00 97 1016.4
20260508082737 32 87 0.0 0.0 0.00 0.00 0.00 97 1016.4
20260508082235 32 87 0.0 0.0 0.00 0.00 0.00 97 1016.3
20260508081732 32 88 0.0 0.0 0.00 0.00 0.00 97 1016.3
20260508081229 32 87 0.0 0.0 0.00 0.00 0.00 97 1016.3
20260508080726 32 87 0.0 0.0 0.00 0.00 0.00 97 1016.5
20260508080224 32 87 0.0 0.0 0.00 0.00 0.00 97 1016.4
20260508075720 32 87 0.0 0.0 0.00 0.00 0.00 97 1016.4
20260508075217 32 87 0.0 0.0 0.00 0.00 0.00 97 1016.4
20260508074715 32 88 0.0 0.0 0.00 0.00 0.00 97 1016.4
20260508074212 32 87 0.0 0.0 0.00 0.00 0.00 96 1016.2
20260508073708 33 88 0.0 0.0 0.00 0.00 0.00 96 1016.3
20260508073207 33 87 0.0 0.0 0.00 0.00 0.00 96 1016.2
20260508072702 33 87 0.0 0.0 0.00 0.00 0.00 96 1016.4
20260508072159 33 87 0.0 0.0 0.00 0.00 0.00 96 1016.1
20260508071657 33 88 0.0 0.0 0.00 0.00 0.00 96 1016.2
20260508071155 33 88 0.0 0.0 0.00 0.00 0.00 96 1016.1
20260508070652 33 87 0.0 0.0 0.00 0.00 0.00 96 1015.8
20260508070151 33 88 0.0 0.0 0.00 0.00 0.00 96 1016.2
20260508065647 33 87 0.0 0.0 0.00 0.00 0.00 96 1016.2
20260508065145 33 87 0.0 0.0 0.00 0.00 0.00 96 1016.4
20260508064643 34 87 0.0 0.0 0.00 0.00 0.00 96 1016.2
20260508064141 34 87 0.0 0.0 0.00 0.00 0.00 96 1016.3
20260508063638 34 87 0.0 0.0 0.00 0.00 0.00 95 1016.5
20260508063136 34 88 0.0 0.0 0.00 0.00 0.00 95 1016.3
20260508062633 34 88 0.0 0.0 0.00 0.00 0.00 95 1016.5
20260508062130 34 87 0.0 0.0 0.00 0.00 0.00 95 1016.5
20260508061627 34 87 0.0 0.0 0.00 0.00 0.00 95 1016.4
20260508061125 34 88 0.0 0.0 0.00 0.00 0.00 95 1016.3
20260508060621 34 88 0.0 0.0 0.00 0.00 0.00 95 1016.3
20260508060118 35 88 0.0 0.0 0.00 0.00 0.00 95 1016.5
20260508055614 35 88 0.0 0.0 0.00 0.00 0.00 95 1016.5
20260508055111 35 85 0.0 0.0 0.00 0.00 0.00 94 1016.3
20260508054607 35 84 0.0 0.0 0.00 0.00 0.00 94 1016.3
20260508054105 35 84 0.0 0.0 0.00 0.00 0.00 94 1016.3
20260508053601 35 90 0.0 0.0 0.00 0.00 0.00 94 1016.2
20260508053100 35 85 0.0 0.0 0.00 0.00 0.00 93 1016.3
20260508052557 35 95 0.0 0.0 0.00 0.00 0.00 93 1016.2
20260508052054 36 88 0.0 0.0 0.00 0.00 0.00 93 1016.3
20260508051549 36 90 0.0 0.0 0.00 0.00 0.00 93 1016.2
20260508051044 36 86 0.0 0.0 0.00 0.00 0.00 93 1016.1
20260508050541 36 102 0.0 0.0 0.00 0.00 0.00 93 1016.0
20260508050039 36 93 0.0 0.0 0.00 0.00 0.00 93 1016.2
20260508045535 37 99 0.0 0.0 0.00 0.00 0.00 93 1016.1
20260508045033 37 84 0.0 0.0 0.00 0.00 0.00 93 1016.3
20260508044530 37 85 0.0 0.0 0.00 0.00 0.00 93 1016.3
20260508044026 37 111 0.0 0.0 0.00 0.00 0.00 93 1016.1
20260508043522 37 85 0.0 0.0 0.00 0.00 0.00 92 1016.4
20260508043019 37 86 0.0 0.0 0.00 0.00 0.00 92 1016.1
20260508042516 37 82 0.0 0.0 0.00 0.00 0.00 92 1016.4
20260508042014 38 82 0.0 0.0 0.00 0.00 0.00 92 1016.2
20260508041509 38 83 0.0 0.0 0.00 0.00 0.00 92 1016.1
20260508041006 38 87 0.0 0.0 0.00 0.00 0.00 92 1016.0
20260508040503 38 87 0.0 0.0 0.00 0.00 0.00 91 1016.0
20260508040001 38 93 0.0 0.0 0.00 0.00 0.00 92 1015.8
20260508035458 38 79 0.0 0.0 0.00 0.00 0.00 91 1016.0
20260508034954 38 82 0.0 0.0 0.00 0.00 0.00 91 1016.1
20260508034452 39 92 0.0 0.0 0.00 0.00 0.00 91 1016.0
20260508033948 39 88 0.0 0.0 0.00 0.00 0.00 91 1016.0
20260508033447 39 87 0.0 0.0 0.00 0.00 0.00 91 1015.8
20260508032944 39 109 0.0 0.0 0.00 0.00 0.00 91 1015.8
20260508032441 39 82 0.0 0.0 0.00 0.00 0.00 91 1015.8
20260508031937 39 76 0.0 0.0 0.00 0.00 0.00 91 1015.7
20260508031435 40 87 0.0 0.0 0.00 0.00 0.00 91 1015.8
20260508030931 40 102 0.0 0.0 0.00 0.00 0.00 90 1016.0
20260508030428 40 91 0.0 0.0 0.00 0.00 0.00 90 1015.5
20260508025925 40 86 0.0 0.0 0.00 0.00 0.00 90 1015.6
20260508025421 41 86 0.0 0.0 0.00 0.00 0.00 90 1015.4
20260508024918 41 86 0.0 0.0 0.00 0.00 0.00 89 1015.4
20260508024416 41 81 0.0 0.0 0.00 0.00 0.00 89 1015.3
20260508023912 41 86 0.0 0.0 0.00 0.00 0.00 88 1015.4
20260508023409 42 85 0.0 0.0 0.00 0.00 0.00 88 1015.2
20260508022907 42 88 0.0 0.0 0.00 0.00 0.00 88 1015.2
20260508022402 42 86 0.0 0.0 0.00 0.00 0.00 87 1015.2
20260508021859 42 75 0.0 0.0 0.00 0.00 0.00 87 1014.8
20260508021355 42 73 1.0 1.0 0.00 0.00 0.00 87 1014.9
20260508020850 42 1 3.0 3.0 0.00 0.00 0.00 87 1014.9
20260508020348 43 85 0.0 0.0 0.00 0.00 0.00 87 1014.8
20260508015845 43 85 0.0 0.0 0.00 0.00 0.00 86 1014.8
20260508015343 44 84 0.0 0.0 0.00 0.00 0.00 86 1014.7
20260508014839 44 86 0.0 0.0 0.00 0.00 0.00 86 1014.6
20260508014338 44 83 0.0 0.0 0.00 0.00 0.00 85 1014.7
20260508013837 44 80 0.0 0.0 0.00 0.00 0.00 85 1014.7
20260508013334 45 83 0.0 0.0 0.00 0.00 0.00 84 1014.6
20260508012831 45 78 0.0 0.0 0.00 0.00 0.00 84 1014.6
20260508012328 46 91 0.0 0.0 0.00 0.00 0.00 84 1014.3
20260508011826 46 105 0.0 0.0 0.00 0.00 0.00 83 1014.4
20260508011324 46 57 1.0 2.0 0.00 0.00 0.00 82 1014.4
20260508010820 46 84 0.0 0.0 0.00 0.00 0.00 82 1014.0
20260508010318 46 90 0.0 0.0 0.00 0.00 0.00 81 1014.1
20260508005815 47 86 0.0 0.0 0.00 0.00 0.00 81 1013.9
20260508005312 48 79 0.0 0.0 0.00 0.00 0.00 81 1014.0
20260508004808 48 85 0.0 0.0 0.00 0.00 0.00 80 1014.0
20260508004304 48 84 0.0 0.0 0.00 0.00 0.00 78 1014.0
20260508003801 49 80 0.0 0.0 0.00 0.00 0.00 78 1013.8
20260508003258 49 78 0.0 0.0 0.00 0.00 0.00 76 1014.0
20260508002754 49 81 0.0 0.0 0.00 0.00 0.00 77 1013.7
20260508002252 50 61 1.0 1.0 0.00 0.00 0.00 76 1013.7
20260508001748 51 51 1.0 1.0 0.00 0.00 0.00 75 1013.7
20260508001243 52 87 0.0 0.0 0.00 0.00 0.00 65 1013.5
20260508000740 52 136 1.0 1.0 0.00 0.00 0.00 62 1013.5
20260508000237 52 76 2.0 2.0 0.00 0.00 0.00 71 1013.5
20260507235733 53 69 1.0 1.0 0.00 0.00 0.00 71 1013.3
20260507235231 54 120 0.0 0.0 0.00 0.00 0.00 57 1013.4
20260507234728 55 111 1.0 2.0 0.00 0.00 0.00 58 1013.3
20260507234224 55 86 0.0 0.0 0.00 0.00 0.00 57 1013.3
20260507233721 55 304 3.0 4.0 0.00 0.00 0.00 56 1013.3
20260507233219 56 249 2.0 3.0 0.00 0.00 0.00 55 1013.3
20260507232716 57 280 4.0 6.0 0.00 0.00 0.00 54 1013.4
20260507232213 57 144 1.0 2.0 0.00 0.00 0.00 53 1013.2
20260507231709 58 232 4.0 6.0 0.00 0.00 0.00 52 1013.2
20260507231206 58 143 1.0 2.0 0.00 0.00 0.00 53 1013.2
20260507230703 58 301 3.0 3.0 0.00 0.00 0.00 54 1013.2
20260507230200 58 215 1.0 3.0 0.00 0.00 0.00 53 1013.1
20260507225700 57 149 2.0 2.0 0.00 0.00 0.00 54 1013.2
20260507225157 57 47 1.0 2.0 0.00 0.00 0.00 53 1013.1
20260507224652 58 260 4.0 4.0 0.00 0.00 0.00 54 1013.2
20260507224149 58 295 5.0 7.0 0.00 0.00 0.00 54 1013.0
20260507223645 59 284 9.0 11.0 0.00 0.00 0.00 52 1013.2
20260507223142 58 285 2.0 3.0 0.00 0.00 0.00 55 1012.9
20260507222639 58 111 4.0 6.0 0.00 0.00 0.00 55 1012.9
20260507222135 58 117 2.0 3.0 0.00 0.00 0.00 56 1013.0
20260507221632 57 282 6.0 8.0 0.00 0.00 0.00 55 1013.0
20260507221128 59 306 2.0 2.0 0.00 0.00 0.00 57 1013.0
20260507220626 59 71 1.0 1.0 0.00 0.00 0.00 54 1012.8
20260507220123 59 298 5.0 6.0 0.00 0.00 0.00 57 1012.6
20260507215619 58 199 6.0 7.0 0.00 0.00 0.00 55 1012.8
20260507215117 58 262 6.0 7.0 0.00 0.00 0.00 56 1012.6
20260507214614 57 64 1.0 3.0 0.00 0.00 0.00 57 1012.6
20260507214110 59 82 2.0 2.0 0.00 0.00 0.00 55 1012.6
20260507213606 59 217 7.0 9.0 0.00 0.00 0.00 54 1012.7
20260507213104 59 188 4.0 7.0 0.00 0.00 0.00 54 1012.6
20260507212559 59 235 3.0 3.0 0.00 0.00 0.00 55 1012.3
20260507212056 60 277 2.0 3.0 0.00 0.00 0.00 54 1012.4
20260507211553 58 274 8.0 9.0 0.00 0.00 0.00 56 1012.3
20260507211049 59 290 5.0 6.0 0.00 0.00 0.00 55 1012.2
20260507210547 59 341 7.0 10.0 0.00 0.00 0.00 58 1012.1
20260507210043 59 73 0.0 1.0 0.00 0.00 0.00 61 1012.1
20260507205540 59 180 4.0 8.0 0.00 0.00 0.00 58 1012.2
20260507205036 58 268 4.0 7.0 0.00 0.00 0.00 59 1012.4
20260507204532 57 321 2.0 2.0 0.00 0.00 0.00 60 1012.3
20260507204030 57 9 7.0 9.0 0.00 0.00 0.00 58 1012.2
20260507203528 59 155 4.0 6.0 0.00 0.00 0.00 58 1012.2
20260507203025 58 45 6.0 10.0 0.00 0.00 0.00 58 1012.1
20260507202521 59 88 0.0 0.0 0.00 0.00 0.00 60 1012.1
20260507202017 58 329 4.0 4.0 0.00 0.00 0.00 59 1012.0
20260507201513 58 153 1.0 2.0 0.00 0.00 0.00 58 1012.2
20260507201009 60 158 4.0 9.0 0.00 0.00 0.00 56 1012.1
20260507200506 59 89 1.0 2.0 0.00 0.00 0.00 61 1011.9
20260507200002 58 347 2.0 2.0 0.00 0.00 0.00 56 1012.2
20260507195459 56 316 3.0 3.0 0.00 0.00 0.00 59 1012.4
20260507194956 57 208 7.0 9.0 0.00 0.00 0.00 58 1012.6
20260507194452 58 292 10.0 11.0 0.00 0.00 0.00 58 1012.4
20260507193948 58 160 3.0 4.0 0.00 0.00 0.00 59 1012.8
20260507193446 59 149 1.0 2.0 0.00 0.00 0.00 61 1012.7
20260507192942 58 296 2.0 3.0 0.00 0.00 0.00 60 1012.4
20260507192438 57 111 2.0 2.0 0.00 0.00 0.00 63 1012.7
20260507191936 56 60 1.0 2.0 0.00 0.00 0.00 61 1012.9
20260507191431 57 132 2.0 4.0 0.00 0.00 0.00 63 1012.7
20260507190928 56 281 5.0 7.0 0.00 0.00 0.00 62 1012.9
20260507190426 56 52 2.0 3.0 0.00 0.00 0.00 60 1012.8
20260507185925 56 125 2.0 2.0 0.00 0.00 0.00 64 1012.9
20260507185422 57 169 1.0 2.0 0.00 0.00 0.00 61 1013.1
20260507184918 57 267 4.0 4.0 0.00 0.00 0.00 64 1013.1
20260507184416 56 204 4.0 4.0 0.00 0.00 0.00 67 1013.1
20260507183914 56 65 0.0 1.0 0.00 0.00 0.00 64 1013.0
20260507183410 55 155 0.0 1.0 0.00 0.00 0.00 66 1013.3
20260507182908 55 212 2.0 3.0 0.00 0.00 0.00 66 1013.3
20260507182403 55 296 4.0 7.0 0.00 0.00 0.00 65 1013.3
20260507181900 56 266 4.0 4.0 0.00 0.00 0.00 65 1013.3
20260507181356 55 64 1.0 1.0 0.00 0.00 0.00 67 1013.4
20260507180853 55 166 2.0 4.0 0.00 0.00 0.00 68 1013.2
20260507180349 54 40 2.0 3.0 0.00 0.00 0.00 67 1013.3
20260507175845 54 293 3.0 4.0 0.00 0.00 0.00 69 1013.2
20260507175343 54 123 0.0 1.0 0.00 0.00 0.00 69 1013.3
20260507174840 54 320 4.0 4.0 0.00 0.00 0.00 67 1013.3
20260507174337 54 356 2.0 2.0 0.00 0.00 0.00 69 1013.3
20260507173835 54 240 3.0 4.0 0.00 0.00 0.00 69 1013.3
20260507173332 54 233 3.0 4.0 0.00 0.00 0.00 68 1013.5
20260507172828 53 358 4.0 6.0 0.00 0.00 0.00 67 1013.3
20260507172325 54 295 3.0 3.0 0.00 0.00 0.00 69 1013.4
20260507171820 54 31 0.0 1.0 0.00 0.00 0.00 66 1013.5
20260507171317 55 286 2.0 2.0 0.00 0.00 0.00 65 1013.4
20260507170814 55 276 1.0 1.0 0.00 0.00 0.00 66 1013.4
20260507170311 56 230 2.0 2.0 0.00 0.00 0.00 63 1013.4
20260507165807 54 284 3.0 3.0 0.00 0.00 0.00 65 1013.5
20260507165306 55 46 2.0 2.0 0.00 0.00 0.00 64 1013.5
20260507164759 55 100 3.0 3.0 0.00 0.00 0.00 64 1013.5
20260507164256 54 164 1.0 1.0 0.00 0.00 0.00 64 1013.7
20260507163754 54 58 2.0 3.0 0.00 0.00 0.00 61 1013.7
20260507163251 53 119 2.0 2.0 0.00 0.00 0.00 65 1013.7
20260507162747 54 103 2.0 2.0 0.00 0.00 0.00 64 1013.6
20260507162243 54 17 2.0 3.0 0.00 0.00 0.00 59 1013.8
20260507161740 54 85 0.0 0.0 0.00 0.00 0.00 62 1013.9
20260507161237 55 100 1.0 2.0 0.00 0.00 0.00 61 1013.7
20260507160733 53 100 2.0 3.0 0.00 0.00 0.00 63 1014.0
20260507160230 53 74 1.0 1.0 0.00 0.00 0.00 60 1013.8
20260507155726 54 17 4.0 6.0 0.00 0.00 0.00 65 1013.6
20260507155222 53 124 0.0 1.0 0.00 0.00 0.00 65 1013.9
20260507154719 52 160 1.0 2.0 0.00 0.00 0.00 68 1013.8
20260507154216 53 70 1.0 1.0 0.00 0.00 0.00 67 1013.8
20260507153712 53 71 0.0 1.0 0.00 0.00 0.00 65 1014.0
20260507153209 53 33 2.0 3.0 0.00 0.00 0.00 66 1014.0
20260507152705 52 5 1.0 1.0 0.00 0.00 0.00 65 1013.9
20260507152201 52 18 2.0 3.0 0.00 0.00 0.00 62 1014.1
20260507151657 51 52 3.0 4.0 0.00 0.00 0.00 63 1014.0
20260507151154 51 300 2.0 2.0 0.00 0.00 0.00 64 1014.0
20260507150651 52 68 0.0 0.0 0.00 0.00 0.00 63 1014.3
20260507150148 51 296 3.0 6.0 0.00 0.00 0.00 64 1014.1
20260507145643 51 53 0.0 1.0 0.00 0.00 0.00 68 1014.4
20260507145141 51 31 3.0 4.0 0.00 0.00 0.00 64 1014.3
20260507144637 52 13 3.0 3.0 0.00 0.00 0.00 67 1014.3
20260507144136 52 316 4.0 4.0 0.00 0.00 0.00 67 1013.9
20260507143632 51 67 0.0 0.0 0.00 0.00 0.00 70 1014.0
20260507143129 51 88 1.0 1.0 0.00 0.00 0.00 70 1014.1
20260507142625 51 166 1.0 1.0 0.00 0.00 0.00 71 1014.0
20260507142122 51 270 2.0 4.0 0.00 0.00 0.00 75 1014.1
20260507141618 50 68 1.0 2.0 0.00 0.00 0.00 76 1014.1
20260507141115 50 105 1.0 2.0 0.00 0.00 0.00 75 1014.3
20260507140611 50 90 0.0 0.0 0.00 0.00 0.00 80 1014.3
20260507140109 49 157 2.0 2.0 0.00 0.00 0.00 78 1014.4
20260507135606 50 39 1.0 1.0 0.00 0.00 0.00 79 1014.4
20260507135103 49 290 2.0 2.0 0.00 0.00 0.00 81 1014.6
20260507134559 49 27 2.0 3.0 0.00 0.00 0.00 82 1014.5
20260507134056 49 6 1.0 1.0 0.00 0.00 0.00 82 1014.6
20260507133551 49 269 2.0 3.0 0.00 0.00 0.00 84 1014.7
20260507133049 48 1 1.0 3.0 0.00 0.00 0.00 83 1014.7
20260507132545 48 70 0.0 0.0 0.00 0.00 0.00 83 1014.6
20260507132042 48 97 0.0 0.0 0.00 0.00 0.00 84 1014.7
20260507131539 48 349 1.0 2.0 0.00 0.00 0.00 83 1014.7
20260507131037 48 74 0.0 0.0 0.00 0.00 0.00 84 1014.5
20260507130533 48 93 0.0 1.0 0.00 0.00 0.00 84 1014.7
20260507130032 48 70 0.0 0.0 0.00 0.00 0.00 83 1014.7
20260507125530 48 75 0.0 0.0 0.00 0.00 0.00 84 1014.8
20260507125027 47 82 0.0 0.0 0.00 0.00 0.00 83 1014.8
20260507124523 48 73 0.0 1.0 0.00 0.00 0.00 86 1014.8
20260507124021 47 98 0.0 0.0 0.00 0.00 0.00 86 1014.8
20260507123519 47 90 0.0 0.0 0.00 0.00 0.00 86 1014.8
20260507123015 47 120 1.0 1.0 0.00 0.00 0.00 86 1014.9
20260507122510 47 79 0.0 0.0 0.00 0.00 0.00 86 1014.7
20260507122007 47 63 1.0 1.0 0.00 0.00 0.00 85 1014.6
20260507121503 47 80 0.0 0.0 0.00 0.00 0.00 86 1014.7
20260507120958 46 80 0.0 0.0 0.00 0.00 0.00 85 1014.4
20260507120455 46 79 0.0 0.0 0.00 0.00 0.00 86 1014.7
20260507115952 46 85 1.0 1.0 0.00 0.00 0.00 85 1014.7
20260507115448 46 1 3.0 3.0 0.00 0.00 0.00 86 1014.6
20260507114943 46 74 0.0 1.0 0.00 0.00 0.00 87 1014.6
20260507114440 46 82 0.0 0.0 0.00 0.00 0.00 86 1014.5
20260507113937 47 70 0.0 0.0 0.00 0.00 0.00 88 1014.5
20260507113434 46 69 0.0 0.0 0.00 0.00 0.00 88 1014.5
20260507112932 46 75 0.0 0.0 0.00 0.00 0.00 88 1014.4
20260507112429 46 116 0.0 0.0 0.00 0.00 0.00 89 1014.5
20260507111926 46 30 0.0 0.0 0.00 0.00 0.00 89 1014.3
20260507111424 46 30 0.0 0.0 0.00 0.00 0.00 89 1014.1
20260507110920 46 30 0.0 0.0 0.00 0.00 0.00 88 1014.1
20260507110416 46 18 0.0 0.0 0.00 0.00 0.00 89 1013.9
20260507105913 46 20 0.0 1.0 0.00 0.00 0.00 88 1014.0
20260507105409 46 19 0.0 0.0 0.00 0.00 0.00 89 1014.0
20260507104906 46 18 0.0 0.0 0.00 0.00 0.00 88 1013.9
20260507104403 46 18 1.0 1.0 0.00 0.00 0.00 88 1014.0
20260507103859 46 19 0.0 0.0 0.00 0.00 0.00 88 1013.9
20260507103356 46 356 0.0 0.0 0.00 0.00 0.00 87 1014.0
20260507102852 46 339 0.0 0.0 0.00 0.00 0.00 86 1013.9
20260507102348 46 336 1.0 1.0 0.00 0.00 0.00 86 1014.0